Terug naar catalogus

STARLINK-34069

ActiefCommunicatieVLEO
NORAD 64920·PAYLOAD·🇺🇸 United States

Gelanceerd Jul 26, 2025 vanaf Cape Canaveral Space Force Station

Loading…

Volgende Passages (komende 24 uur)

TLE

VersSource: CelesTrak SupGP

Epoch: Sep 15, 2026, 02:19 UTC

1 64920C 25157S   26258.09701389 -.00066883  00000+0 -19761-2 0  2587
2 64920  53.1569 182.9512 0001328  83.0435 304.2819 15.34423238    10

Volg STARLINK-34069 in realtime met AllMySat

Download on the App Store